Location: Unspecified
(0.0000°N, 0.0000°E)
Time: 05:39:09
(UTC+01:00)

USA 116 - Visible Passes

Search period start: 19 December 2014 00:00
Search period end: 29 December 2014 00:00
Orbit: 405 x 834 km, 97.9° (Epoch: 18 November)

Date Brightness Start Highest point End Pass type
(mag) Time Alt. Az. Time Alt. Az. Time Alt. Az.
19 Dec 6.8 04:21:36 10° ESE 04:24:33 16° E 04:26:30 13° NE visible
19 Dec 5.2 05:55:39 10° SSW 06:00:14 31° WSW 06:03:29 16° NW visible
20 Dec 6.3 04:35:10 10° SE 04:39:12 23° E 04:41:10 18° NE visible
20 Dec 5.7 06:11:00 10° SSW 06:14:46 21° WSW 06:18:09 11° WNW visible
21 Dec 5.6 04:49:11 10° SE 04:53:50 35° E 04:55:50 25° NE visible
21 Dec 6.1 06:26:58 10° SW 06:29:18 13° WSW 06:31:33 10° WNW visible
22 Dec 4.8 05:03:29 10° SSE 05:08:28 55° E 05:10:29 31° NNE visible
23 Dec 4.2 05:18:00 10° SSE 05:23:05 86° ENE 05:25:08 34° N visible
24 Dec 4.2 05:32:42 10° S 05:37:40 60° WSW 05:39:47 30° NW visible
25 Dec 7.0 04:15:38 10° E 04:16:23 10° E 04:17:08 10° ENE visible
25 Dec 4.7 05:47:38 10° S 05:52:12 38° WSW 05:54:25 23° NW visible
26 Dec 6.5 04:28:04 10° ESE 04:31:02 17° E 04:32:05 15° ENE visible
26 Dec 5.3 06:02:49 10° SSW 06:06:43 24° WSW 06:09:04 16° WNW visible
27 Dec 5.9 04:41:46 10° SE 04:45:41 25° E 04:46:43 23° ENE visible
27 Dec 5.9 06:18:28 10° SW 06:21:13 15° WSW 06:23:42 10° WNW visible
28 Dec 5.2 04:55:52 10° SSE 05:00:19 39° E 05:01:21 34° NE visible
